TimeEDT,TemperatureF,Dew PointF,Humidity,Sea Level PressureIn,VisibilityMPH,Wind Direction,Wind SpeedMPH,Gust SpeedMPH,PrecipitationIn,Events,Conditions,WindDirDegrees,DateUTC
12:33 AM,59.0,57.2,94,30.06,1.8,Calm,Calm,-,0.00,,Overcast,0,2012-10-03 04:33:00
12:45 AM,59.0,57.2,94,30.05,0.8,Calm,Calm,-,0.00,,Overcast,0,2012-10-03 04:45:00
12:54 AM,57.9,57.9,100,30.06,0.2,Calm,Calm,-,0.00,Fog,Fog,0,2012-10-03 04:54:00
1:09 AM,57.2,57.2,100,30.05,0.2,East,3.5,-,0.00,Fog-Rain,Light Rain,100,2012-10-03 05:09:00
1:54 AM,59.0,57.9,96,30.06,0.2,East,4.6,-,0.00,Fog-Rain,Light Rain,90,2012-10-03 05:54:00
2:54 AM,59.0,57.9,96,30.05,0.2,NE,5.8,-,0.01,Fog,Fog,50,2012-10-03 06:54:00
3:54 AM,59.0,57.9,96,30.05,0.2,ENE,4.6,-,0.00,Fog-Rain,Light Rain,70,2012-10-03 07:54:00
4:40 AM,57.2,57.2,100,30.06,0.2,ENE,5.8,-,0.01,Fog,Fog,60,2012-10-03 08:40:00
4:52 AM,57.2,57.2,100,30.06,0.2,ENE,4.6,-,0.01,Fog,Fog,60,2012-10-03 08:52:00
4:54 AM,59.0,57.9,96,30.06,0.2,ENE,5.8,-,0.01,Fog,Fog,60,2012-10-03 08:54:00
5:03 AM,57.2,57.2,100,30.06,0.2,ENE,4.6,-,N/A,Fog,Fog,60,2012-10-03 09:03:00
5:23 AM,59.0,57.2,94,30.07,0.2,ENE,3.5,-,N/A,Fog,Fog,60,2012-10-03 09:23:00
5:54 AM,59.0,57.9,96,30.07,0.2,ENE,5.8,-,N/A,Fog,Fog,60,2012-10-03 09:54:00
6:54 AM,59.0,57.9,96,30.09,0.2,ENE,6.9,-,N/A,Fog,Fog,60,2012-10-03 10:54:00
7:06 AM,59.0,57.2,94,30.08,0.2,ENE,6.9,-,0.01,Fog,Fog,70,2012-10-03 11:06:00
7:45 AM,59.0,59.0,100,30.10,0.2,NE,4.6,-,0.01,Fog,Fog,50,2012-10-03 11:45:00
7:54 AM,59.0,57.9,96,30.11,0.2,NE,5.8,-,0.01,Fog,Fog,50,2012-10-03 11:54:00
8:54 AM,59.0,59.0,100,30.11,0.2,NE,5.8,-,N/A,Fog,Fog,50,2012-10-03 12:54:00
9:30 AM,60.8,59.0,94,30.11,0.2,ENE,5.8,-,N/A,Fog,Fog,70,2012-10-03 13:30:00
9:40 AM,60.8,59.0,94,30.11,0.2,ENE,5.8,-,N/A,Fog,Fog,60,2012-10-03 13:40:00
9:50 AM,60.8,59.0,94,30.11,0.2,Calm,Calm,-,N/A,Fog,Fog,0,2012-10-03 13:50:00
9:54 AM,60.1,60.1,100,30.12,0.2,ENE,3.5,-,N/A,Fog,Fog,70,2012-10-03 13:54:00
10:54 AM,60.1,60.1,100,30.12,0.2,ENE,4.6,-,N/A,Fog,Fog,70,2012-10-03 14:54:00
11:54 AM,61.0,61.0,100,30.12,0.2,NE,3.5,-,0.00,Fog,Fog,40,2012-10-03 15:54:00
12:54 PM,62.1,61.0,96,30.12,0.2,Variable,3.5,-,N/A,Fog,Fog,0,2012-10-03 16:54:00
1:52 PM,62.6,60.8,94,30.10,0.2,ENE,4.6,-,N/A,Fog,Fog,70,2012-10-03 17:52:00
1:54 PM,62.1,61.0,96,30.10,0.2,ENE,4.6,-,N/A,Fog,Fog,60,2012-10-03 17:54:00
2:02 PM,62.6,60.8,94,30.11,0.2,East,4.6,-,N/A,Fog,Fog,80,2012-10-03 18:02:00
2:54 PM,62.1,61.0,96,30.11,0.2,ENE,4.6,-,N/A,Fog,Fog,60,2012-10-03 18:54:00
3:54 PM,62.1,61.0,96,30.11,0.2,ENE,4.6,-,N/A,Fog,Fog,70,2012-10-03 19:54:00
4:54 PM,62.1,61.0,96,30.12,0.2,ENE,5.8,-,N/A,Fog,Fog,70,2012-10-03 20:54:00
5:54 PM,62.1,61.0,96,30.13,0.2,NE,5.8,-,N/A,Fog,Fog,50,2012-10-03 21:54:00
9:35 PM,60.8,59.0,94,30.16,0.2,ENE,4.6,-,0.01,Fog-Rain,Light Rain,60,2012-10-04 01:35:00
9:54 PM,60.1,59.0,96,30.17,0.2,ENE,4.6,-,0.01,Fog,Fog,60,2012-10-04 01:54:00
10:03 PM,60.8,59.0,94,30.16,0.2,ENE,4.6,-,N/A,Fog,Fog,60,2012-10-04 02:03:00
10:19 PM,60.8,59.0,94,30.16,0.2,ENE,4.6,-,N/A,Fog,Fog,60,2012-10-04 02:19:00
10:50 PM,60.8,59.0,94,30.16,0.2,NE,3.5,-,N/A,Fog,Fog,50,2012-10-04 02:50:00
10:54 PM,60.1,59.0,96,30.17,0.2,ENE,3.5,-,N/A,Fog,Fog,60,2012-10-04 02:54:00
11:54 PM,60.1,59.0,96,30.17,0.2,ENE,3.5,-,N/A,Fog,Fog,70,2012-10-04 03:54:00